Volver al catálogo

STARLINK-34410

ActivoComunicacionesVLEO
NORAD 64440·PAYLOAD·🇺🇸 United States

Lanzado Jun 18, 2025 desde Cape Canaveral Space Force Station

Loading…

Próximos Pases (próximas 24 horas)

TLE

ActualizadoSource: CelesTrak SupGP

Época: Sep 14, 2026, 22:34 UTC

1 64440C 25130C   26257.94076389  .00053245  00000+0  15736-2 0  2576
2 64440  53.1581 287.6938 0001195  91.3733 267.2353 15.34355744    18

Sigue STARLINK-34410 en tiempo real con AllMySat

Download on the App Store